Volver al catálogo

SL-14 DEB

ActivoPO
NORAD 25203·DEBRIS·🇷🇺 Russia

Lanzado Aug 18, 1987 desde Plesetsk Cosmodrome

Loading…

Próximos Pases (próximas 24 horas)

TLE

ActualizadoSource: Space-Track

Época: Sep 14, 2026, 02:23 UTC

1 25203U 87068AE  26257.09985868  .00000759  00000-0  29254-3 0  9992
2 25203  82.2667 142.4197 0091986  98.1726 262.9904 14.26842762477786

Sigue SL-14 DEB en tiempo real con AllMySat

Download on the App Store